User: anonymous   Login
Location: Kalberh�ni
(46.4610°N, 7.2453°E)
Time: 18:58:35
(UTC+00:00)
Language:

Cosmos 1626 - Orbit

View from above orbital plane
View from above orbital plane
View from above satellite
View from above satellite

Ground track
Ground track

The orbit data is extracted from the following two-line orbital elements,

1 15494U 85009A   21294.52312877  .00001873  00000-0  73355-4 0  9994
2 15494  82.4760  98.3149 0000900 214.1147 146.0033 15.25181702 10184
Epoch (UTC): 21 October 2021 12:33:18
Eccentricity: 0.0000900
inclination: 82.4760°
perigee height: 489 km
apogee height: 491 km
right ascension of ascending node: 98.3149°
argument of perigee: 214.1147°
revolutions per day: 15.25181702
mean anomaly at epoch: 146.0033°
orbit number at epoch: 1018

The dashed part of the orbit path shows where the satellite is in the earth's shadow,  

DLR